Regional Weather Roundup
Issued by NWS

Home | Current Version | Previous Version | Text Only | Print | Product List | Glossary Off
Versions: 1 2 3 4 5 6 7 8 9 10 11 12 13 14 15 16 17 18 19 20 21 22 23 24 25 26 27 28 29 30 31 32 33 34 35 36 37 38 39 40 41 42 43 44 45 46 47 48 49 50

000
ASUS43 KBIS 272031
RWRND
NORTH DAKOTA REGIONAL WEATHER ROUNDUP
NATIONAL WEATHER SERVICE EASTERN NORTH DAKOTA/GRAND FORKS ND
300 PM CDT TUE JUN 27 2017

  NOTE: "FAIR" INDICATES FEW OR NO CLOUDS BELOW 12,000 FEET WITH NO
  SIGNIFICANT WEATHER AND/OR OBSTRUCTIONS TO VISIBILITY.

NDZ001>003-009>011-017-272100-
...NORTHWEST NORTH DAKOTA...

CITY           SKY/WX    TMP DP  RH WIND       PRES   REMARKS
WILLISTON      FAIR      86  48  26 VRB3      29.55S
MINOT          FAIR      84  55  36 S17       29.56S
MINOT AFB      FAIR      83  54  37 S18       29.55S
$$

NDZ018>021-031>035-040>046-272100-
...SOUTHWEST NORTH DAKOTA...

CITY           SKY/WX    TMP DP  RH WIND       PRES   REMARKS
BISMARCK       FAIR      84  58  40 S20G28    29.59F
DICKINSON      FAIR      86  49  27 S15G22    29.56F
GARRISON         N/A     81  56  42 S17G25    29.56F
HETTINGER      FAIR      91  52  26 SW10G22   29.58F
$$

NDZ004>008-012>016-024-026-027-054-272100-
...NORTHEAST NORTH DAKOTA...

CITY           SKY/WX    TMP DP  RH WIND       PRES   REMARKS
GRAND FORKS    FAIR      81  47  30 S24G33    29.71F
GRAND FORKS AF FAIR      79  45  29 S26       29.71F
DEVILS LAKE    FAIR      77  51  40 S22G28    29.67F
$$

NDZ022-023-025-028>030-036>039-047>053-272100-
...SOUTHEAST NORTH DAKOTA...

CITY           SKY/WX    TMP DP  RH WIND       PRES   REMARKS
JAMESTOWN      FAIR      79  46  31 S25G33    29.69F
FARGO          FAIR      77  44  30 S25G36    29.75F
WAHPETON       FAIR      72  41  33 S16       29.79F
$$




USA.gov is the U.S. government's official web portal to all federal, state and local government web resources and services.